contact:dominique.lefevre@mio.osupytheas.fr, maurice.libes@osupytheas.fr, didier.mallarino@osupytheas.fr
Project:EMSO http://www.emso-fr.org/EMSO-France
Depth: 2436.0 m
Title:EMSO Ligure Ouest : Data MII capteur OXYGEN
DateTime,Latitude,Longitude,Optode-Type,Optode_Serial,Oxygen,Saturation_Oxygen,Temperature
DateTime,Latitude,Longitude,Optode-Type,Optode_Serial,µmol.l-1,%,degC
2019-07-25T00:02:38,42.805,6.029,4330,1995,193.070,59.047,13.291
2019-07-25T00:05:38,42.805,6.029,4330,1995,192.964,59.015,13.291
2019-07-25T00:08:38,42.805,6.029,4330,1995,193.092,59.054,13.291
2019-07-25T00:11:38,42.805,6.029,4330,1995,193.137,59.067,13.290
2019-07-25T00:14:38,42.805,6.029,4330,1995,193.157,59.073,13.290
2019-07-25T00:17:38,42.805,6.029,4330,1995,193.180,59.081,13.291
2019-07-25T00:20:38,42.805,6.029,4330,1995,193.119,59.062,13.290
2019-07-25T00:23:38,42.805,6.029,4330,1995,193.157,59.072,13.290
2019-07-25T00:26:38,42.805,6.029,4330,1995,193.206,59.088,13.290
2019-07-25T00:29:38,42.805,6.029,4330,1995,193.136,59.066,13.290
2019-07-25T00:32:38,42.805,6.029,4330,1995,193.182,59.081,13.290
2019-07-25T00:35:38,42.805,6.029,4330,1995,193.166,59.075,13.290
2019-07-25T00:38:38,42.805,6.029,4330,1995,193.137,59.067,13.290
2019-07-25T00:41:38,42.805,6.029,4330,1995,193.156,59.072,13.290
2019-07-25T00:44:38,42.805,6.029,4330,1995,193.139,59.067,13.290
2019-07-25T00:47:38,42.805,6.029,4330,1995,193.137,59.066,13.289
2019-07-25T00:50:38,42.805,6.029,4330,1995,193.154,59.071,13.289
2019-07-25T00:53:38,42.805,6.029,4330,1995,193.103,59.056,13.290
2019-07-25T00:56:38,42.805,6.029,4330,1995,193.129,59.064,13.290
2019-07-25T00:59:38,42.805,6.029,4330,1995,193.089,59.052,13.290
2019-07-25T01:02:38,42.805,6.029,4330,1995,193.020,59.031,13.290
2019-07-25T01:05:38,42.805,6.029,4330,1995,193.167,59.076,13.290
2019-07-25T01:08:38,42.805,6.029,4330,1995,193.111,59.061,13.291
2019-07-25T01:11:38,42.805,6.029,4330,1995,193.126,59.064,13.291
2019-07-25T01:14:38,42.805,6.029,4330,1995,193.162,59.076,13.291
2019-07-25T01:17:38,42.805,6.029,4330,1995,193.116,59.061,13.290
2019-07-25T01:20:38,42.805,6.029,4330,1995,193.139,59.068,13.291
2019-07-25T01:23:38,42.805,6.029,4330,1995,193.128,59.064,13.290
2019-07-25T01:26:38,42.805,6.029,4330,1995,193.116,59.061,13.291
2019-07-25T01:29:38,42.805,6.029,4330,1995,193.152,59.070,13.290
2019-07-25T01:35:38,42.805,6.029,4330,1995,193.132,59.064,13.289
2019-07-25T01:38:38,42.805,6.029,4330,1995,193.160,59.071,13.288
2019-07-25T01:41:38,42.805,6.029,4330,1995,193.121,59.061,13.289
2019-07-25T01:44:38,42.805,6.029,4330,1995,193.117,59.059,13.289
2019-07-25T01:47:38,42.805,6.029,4330,1995,193.142,59.068,13.290
2019-07-25T01:50:38,42.805,6.029,4330,1995,193.111,59.058,13.290
2019-07-25T01:53:38,42.805,6.029,4330,1995,193.213,59.089,13.289
2019-07-25T01:56:38,42.805,6.029,4330,1995,193.209,59.089,13.290
2019-07-25T01:59:38,42.805,6.029,4330,1995,193.090,59.053,13.291
2019-07-25T02:02:38,42.805,6.029,4330,1995,193.097,59.054,13.290
2019-07-25T02:05:38,42.805,6.029,4330,1995,193.073,59.047,13.290
2019-07-25T02:08:38,42.805,6.029,4330,1995,193.057,59.043,13.291
2019-07-25T02:11:38,42.805,6.029,4330,1995,193.043,59.038,13.290
2019-07-25T02:14:38,42.805,6.029,4330,1995,193.014,59.029,13.290
2019-07-25T02:17:38,42.805,6.029,4330,1995,192.986,59.020,13.290
2019-07-25T02:20:38,42.805,6.029,4330,1995,193.057,59.043,13.290
2019-07-25T02:23:38,42.805,6.029,4330,1995,193.037,59.037,13.291
2019-07-25T02:26:38,42.805,6.029,4330,1995,193.045,59.039,13.290
2019-07-25T02:29:38,42.805,6.029,4330,1995,192.978,59.020,13.291
2019-07-25T02:32:38,42.805,6.029,4330,1995,193.041,59.038,13.290
2019-07-25T02:35:38,42.805,6.029,4330,1995,192.987,59.021,13.290
2019-07-25T02:38:38,42.805,6.029,4330,1995,193.003,59.026,13.291
2019-07-25T02:41:38,42.805,6.029,4330,1995,192.967,59.016,13.291
2019-07-25T02:44:38,42.805,6.029,4330,1995,192.947,59.014,13.294
2019-07-25T02:47:38,42.805,6.029,4330,1995,192.945,59.010,13.291
2019-07-25T02:50:38,42.805,6.029,4330,1995,192.900,58.996,13.292
2019-07-25T02:53:38,42.805,6.029,4330,1995,192.932,59.006,13.292
2019-07-25T02:56:38,42.805,6.029,4330,1995,192.971,59.017,13.291
2019-07-25T02:59:38,42.805,6.029,4330,1995,192.898,58.996,13.292
2019-07-25T03:02:38,42.805,6.029,4330,1995,192.882,58.993,13.293
2019-07-25T03:05:38,42.805,6.029,4330,1995,192.816,58.971,13.292
2019-07-25T03:08:38,42.805,6.029,4330,1995,192.850,58.980,13.291
2019-07-25T03:11:38,42.805,6.029,4330,1995,192.860,58.983,13.291
2019-07-25T03:14:38,42.805,6.029,4330,1995,192.795,58.965,13.292
2019-07-25T03:17:38,42.805,6.029,4330,1995,192.857,58.984,13.292
2019-07-25T03:20:38,42.805,6.029,4330,1995,192.823,58.975,13.293
2019-07-25T03:23:38,42.805,6.029,4330,1995,192.888,58.993,13.292
2019-07-25T03:26:38,42.805,6.029,4330,1995,192.801,58.965,13.291
2019-07-25T03:29:38,42.805,6.029,4330,1995,192.832,58.975,13.291
2019-07-25T03:32:38,42.805,6.029,4330,1995,192.934,59.005,13.290
2019-07-25T03:35:38,42.805,6.029,4330,1995,192.864,58.984,13.291
2019-07-25T03:38:38,42.805,6.029,4330,1995,192.975,59.017,13.290
2019-07-25T03:41:38,42.805,6.029,4330,1995,192.937,59.006,13.291
2019-07-25T03:44:38,42.805,6.029,4330,1995,192.904,58.995,13.290
2019-07-25T03:47:38,42.805,6.029,4330,1995,192.876,58.988,13.291
2019-07-25T03:50:38,42.805,6.029,4330,1995,192.843,58.977,13.290
2019-07-25T03:53:38,42.805,6.029,4330,1995,192.909,58.996,13.289
2019-07-25T03:56:38,42.805,6.029,4330,1995,192.973,59.017,13.290
2019-07-25T03:59:38,42.805,6.029,4330,1995,192.922,59.000,13.289
2019-07-25T04:02:38,42.805,6.029,4330,1995,192.970,59.014,13.289
2019-07-25T04:05:38,42.805,6.029,4330,1995,192.941,59.006,13.289
2019-07-25T04:11:38,42.805,6.029,4330,1995,193.046,59.040,13.291
2019-07-25T04:14:38,42.805,6.029,4330,1995,192.965,59.015,13.291
2019-07-25T04:17:38,42.805,6.029,4330,1995,192.928,59.004,13.291
2019-07-25T04:20:38,42.805,6.029,4330,1995,193.007,59.028,13.291
2019-07-25T04:23:38,42.805,6.029,4330,1995,192.967,59.015,13.290
2019-07-25T04:26:38,42.805,6.029,4330,1995,192.986,59.021,13.290
2019-07-25T04:29:38,42.805,6.029,4330,1995,193.021,59.033,13.291
2019-07-25T04:32:38,42.805,6.029,4330,1995,193.032,59.035,13.290
2019-07-25T04:35:38,42.805,6.029,4330,1995,192.984,59.021,13.291
2019-07-25T04:38:38,42.805,6.029,4330,1995,192.979,59.020,13.291
2019-07-25T04:41:38,42.805,6.029,4330,1995,193.014,59.029,13.290
2019-07-25T04:44:38,42.805,6.029,4330,1995,192.990,59.023,13.291
2019-07-25T04:47:38,42.805,6.029,4330,1995,193.022,59.032,13.291
2019-07-25T04:50:38,42.805,6.029,4330,1995,192.996,59.024,13.290
2019-07-25T04:53:38,42.805,6.029,4330,1995,192.985,59.020,13.290
2019-07-25T04:56:38,42.805,6.029,4330,1995,193.044,59.037,13.289
2019-07-25T04:59:38,42.805,6.029,4330,1995,192.997,59.024,13.290
2019-07-25T05:02:38,42.805,6.029,4330,1995,192.953,59.010,13.290
2019-07-25T05:05:38,42.805,6.029,4330,1995,192.993,59.022,13.290
2019-07-25T05:08:38,42.805,6.029,4330,1995,192.996,59.023,13.290
2019-07-25T05:11:38,42.805,6.029,4330,1995,193.038,59.037,13.290
2019-07-25T05:14:38,42.805,6.029,4330,1995,192.976,59.016,13.289
2019-07-25T05:17:38,42.805,6.029,4330,1995,193.084,59.049,13.289
2019-07-25T05:20:38,42.805,6.029,4330,1995,193.012,59.027,13.289
2019-07-25T05:23:38,42.805,6.029,4330,1995,193.006,59.025,13.289
2019-07-25T05:26:38,42.805,6.029,4330,1995,193.029,59.033,13.289
2019-07-25T05:29:38,42.805,6.029,4330,1995,192.997,59.023,13.289
2019-07-25T05:32:38,42.805,6.029,4330,1995,193.058,59.041,13.289
2019-07-25T05:35:38,42.805,6.029,4330,1995,193.016,59.030,13.290
2019-07-25T05:38:38,42.805,6.029,4330,1995,192.986,59.020,13.290
2019-07-25T05:41:38,42.805,6.029,4330,1995,193.062,59.043,13.290
2019-07-25T05:44:38,42.805,6.029,4330,1995,193.016,59.029,13.290
2019-07-25T05:47:38,42.805,6.029,4330,1995,193.105,59.057,13.290
2019-07-25T05:50:38,42.805,6.029,4330,1995,193.074,59.047,13.290
2019-07-25T05:53:38,42.805,6.029,4330,1995,193.107,59.058,13.290
2019-07-25T05:56:38,42.805,6.029,4330,1995,193.145,59.069,13.290
2019-07-25T05:59:38,42.805,6.029,4330,1995,193.115,59.060,13.290
2019-07-25T06:02:38,42.805,6.029,4330,1995,193.080,59.050,13.290
2019-07-25T06:05:38,42.805,6.029,4330,1995,193.141,59.068,13.290
2019-07-25T06:08:38,42.805,6.029,4330,1995,193.149,59.071,13.290
2019-07-25T06:11:38,42.805,6.029,4330,1995,193.180,59.082,13.292
2019-07-25T06:14:38,42.805,6.029,4330,1995,193.114,59.059,13.290
2019-07-25T06:17:38,42.805,6.029,4330,1995,193.191,59.083,13.290
2019-07-25T06:20:38,42.805,6.029,4330,1995,193.218,59.093,13.291
2019-07-25T06:23:38,42.805,6.029,4330,1995,193.157,59.075,13.291
2019-07-25T06:26:38,42.805,6.029,4330,1995,193.086,59.053,13.292
2019-07-25T06:29:38,42.805,6.029,4330,1995,193.107,59.058,13.291
2019-07-25T06:32:38,42.805,6.029,4330,1995,193.121,59.064,13.292
2019-07-25T06:35:38,42.805,6.029,4330,1995,193.116,59.062,13.291
2019-07-25T06:38:38,42.805,6.029,4330,1995,193.143,59.070,13.291
2019-07-25T06:47:38,42.805,6.029,4330,1995,193.124,59.059,13.287
2019-07-25T06:50:38,42.805,6.029,4330,1995,193.136,59.067,13.290
2019-07-25T06:53:38,42.805,6.029,4330,1995,193.177,59.078,13.290
2019-07-25T06:56:38,42.805,6.029,4330,1995,193.057,59.044,13.292
2019-07-25T06:59:38,42.805,6.029,4330,1995,193.157,59.073,13.290
2019-07-25T07:02:38,42.805,6.029,4330,1995,193.131,59.065,13.290
2019-07-25T07:05:38,42.805,6.029,4330,1995,193.164,59.075,13.290
2019-07-25T07:08:38,42.805,6.029,4330,1995,193.160,59.073,13.290
2019-07-25T07:11:38,42.805,6.029,4330,1995,193.162,59.074,13.290
2019-07-25T07:14:38,42.805,6.029,4330,1995,193.089,59.053,13.291
2019-07-25T07:17:38,42.805,6.029,4330,1995,193.180,59.080,13.290
2019-07-25T07:20:38,42.805,6.029,4330,1995,193.136,59.068,13.291
2019-07-25T07:23:38,42.805,6.029,4330,1995,193.189,59.084,13.291
2019-07-25T07:26:38,42.805,6.029,4330,1995,193.179,59.080,13.291
2019-07-25T07:29:38,42.805,6.029,4330,1995,193.206,59.090,13.292
2019-07-25T07:32:38,42.805,6.029,4330,1995,193.150,59.072,13.291
2019-07-25T07:35:38,42.805,6.029,4330,1995,193.192,59.084,13.290
2019-07-25T07:38:38,42.805,6.029,4330,1995,193.172,59.079,13.291
2019-07-25T07:41:38,42.805,6.029,4330,1995,193.139,59.067,13.290
2019-07-25T07:44:38,42.805,6.029,4330,1995,193.146,59.072,13.292
2019-07-25T07:47:38,42.805,6.029,4330,1995,193.115,59.060,13.290
2019-07-25T07:50:38,42.805,6.029,4330,1995,193.108,59.059,13.291
2019-07-25T07:53:38,42.805,6.029,4330,1995,193.098,59.057,13.291
2019-07-25T07:56:38,42.805,6.029,4330,1995,193.117,59.061,13.290
2019-07-25T07:59:38,42.805,6.029,4330,1995,193.080,59.050,13.291
2019-07-25T08:02:38,42.805,6.029,4330,1995,193.090,59.052,13.290
2019-07-25T08:05:38,42.805,6.029,4330,1995,193.112,59.059,13.290
2019-07-25T08:08:38,42.805,6.029,4330,1995,193.063,59.042,13.289
2019-07-25T08:11:38,42.805,6.029,4330,1995,193.146,59.068,13.289
2019-07-25T08:14:38,42.805,6.029,4330,1995,193.109,59.057,13.289
2019-07-25T08:17:38,42.805,6.029,4330,1995,193.100,59.055,13.290
2019-07-25T08:20:38,42.805,6.029,4330,1995,193.100,59.054,13.289
2019-07-25T08:23:38,42.805,6.029,4330,1995,193.083,59.050,13.290
2019-07-25T08:26:38,42.805,6.029,4330,1995,192.959,59.010,13.289
2019-07-25T08:29:38,42.805,6.029,4330,1995,193.014,59.027,13.289
2019-07-25T08:32:38,42.805,6.029,4330,1995,193.007,59.026,13.289
2019-07-25T08:35:38,42.805,6.029,4330,1995,193.071,59.045,13.289
2019-07-25T08:38:38,42.805,6.029,4330,1995,193.036,59.035,13.289
2019-07-25T08:41:38,42.805,6.029,4330,1995,193.033,59.034,13.289
2019-07-25T08:44:38,42.805,6.029,4330,1995,192.965,59.014,13.290
2019-07-25T08:47:38,42.805,6.029,4330,1995,193.033,59.033,13.289
2019-07-25T08:50:38,42.805,6.029,4330,1995,193.026,59.031,13.289
2019-07-25T08:53:38,42.805,6.029,4330,1995,192.999,59.024,13.289
2019-07-25T08:56:38,42.805,6.029,4330,1995,192.938,59.004,13.289
2019-07-25T08:59:38,42.805,6.029,4330,1995,193.014,59.029,13.290
2019-07-25T09:02:38,42.805,6.029,4330,1995,192.925,59.001,13.290
2019-07-25T09:05:38,42.805,6.029,4330,1995,192.879,58.986,13.289
2019-07-25T09:08:38,42.805,6.029,4330,1995,192.912,58.997,13.289
2019-07-25T09:11:38,42.805,6.029,4330,1995,192.939,59.006,13.290
2019-07-25T09:14:38,42.805,6.029,4330,1995,192.927,59.001,13.289
2019-07-25T09:20:38,42.805,6.029,4330,1995,192.889,58.989,13.289
2019-07-25T09:23:38,42.805,6.029,4330,1995,192.946,59.005,13.288
2019-07-25T09:26:38,42.805,6.029,4330,1995,192.874,58.985,13.289
2019-07-25T09:29:38,42.805,6.029,4330,1995,192.970,59.014,13.289
2019-07-25T09:32:38,42.805,6.029,4330,1995,192.871,58.984,13.289
2019-07-25T09:35:38,42.805,6.029,4330,1995,192.817,58.968,13.290
2019-07-25T09:38:38,42.805,6.029,4330,1995,192.741,58.944,13.289
2019-07-25T09:41:38,42.805,6.029,4330,1995,192.767,58.953,13.290
2019-07-25T09:44:38,42.805,6.029,4330,1995,192.778,58.958,13.291
2019-07-25T09:47:38,42.805,6.029,4330,1995,192.784,58.959,13.290
2019-07-25T09:50:38,42.805,6.029,4330,1995,192.711,58.937,13.290
2019-07-25T09:53:38,42.805,6.029,4330,1995,192.786,58.959,13.290
2019-07-25T09:56:38,42.805,6.029,4330,1995,192.733,58.942,13.290
2019-07-25T09:59:38,42.805,6.029,4330,1995,192.706,58.937,13.292
2019-07-25T10:02:38,42.805,6.029,4330,1995,192.728,58.942,13.290
2019-07-25T10:05:38,42.805,6.029,4330,1995,192.747,58.948,13.291
2019-07-25T10:08:38,42.805,6.029,4330,1995,192.697,58.933,13.290
2019-07-25T10:11:38,42.805,6.029,4330,1995,192.724,58.942,13.291
2019-07-25T10:14:38,42.805,6.029,4330,1995,192.705,58.936,13.291
2019-07-25T10:17:38,42.805,6.029,4330,1995,192.743,58.948,13.291
2019-07-25T10:20:38,42.805,6.029,4330,1995,192.748,58.949,13.291
2019-07-25T10:23:38,42.805,6.029,4330,1995,192.679,58.928,13.291
2019-07-25T10:26:38,42.805,6.029,4330,1995,192.683,58.931,13.293
2019-07-25T10:29:38,42.805,6.029,4330,1995,192.638,58.916,13.292
2019-07-25T10:32:38,42.805,6.029,4330,1995,192.666,58.924,13.291
2019-07-25T10:35:38,42.805,6.029,4330,1995,192.710,58.938,13.292
2019-07-25T10:38:38,42.805,6.029,4330,1995,192.670,58.925,13.291
2019-07-25T10:41:38,42.805,6.029,4330,1995,192.699,58.935,13.291
2019-07-25T10:44:38,42.805,6.029,4330,1995,192.741,58.946,13.290
2019-07-25T10:47:37,42.805,6.029,4330,1995,192.733,58.945,13.292
2019-07-25T10:50:37,42.805,6.029,4330,1995,192.672,58.925,13.291
2019-07-25T10:53:37,42.805,6.029,4330,1995,192.639,58.915,13.291
2019-07-25T10:56:37,42.805,6.029,4330,1995,192.719,58.940,13.291
2019-07-25T10:59:37,42.805,6.029,4330,1995,192.635,58.914,13.291
2019-07-25T11:02:37,42.805,6.029,4330,1995,192.698,58.933,13.290
2019-07-25T11:05:37,42.805,6.029,4330,1995,192.704,58.936,13.291
2019-07-25T11:08:37,42.805,6.029,4330,1995,192.656,58.920,13.291
2019-07-25T11:11:37,42.805,6.029,4330,1995,192.606,58.906,13.291
2019-07-25T11:14:37,42.805,6.029,4330,1995,192.612,58.908,13.291
2019-07-25T11:17:37,42.805,6.029,4330,1995,192.694,58.931,13.290
2019-07-25T11:20:37,42.805,6.029,4330,1995,192.648,58.917,13.290
2019-07-25T11:23:37,42.805,6.029,4330,1995,192.674,58.927,13.292
2019-07-25T11:26:37,42.805,6.029,4330,1995,192.614,58.908,13.291
2019-07-25T11:29:37,42.805,6.029,4330,1995,192.617,58.907,13.290
2019-07-25T11:32:37,42.805,6.029,4330,1995,192.660,58.920,13.289
2019-07-25T11:35:37,42.805,6.029,4330,1995,192.734,58.942,13.289
2019-07-25T11:38:37,42.805,6.029,4330,1995,192.677,58.925,13.289
2019-07-25T11:41:37,42.805,6.029,4330,1995,192.654,58.918,13.289
2019-07-25T11:44:37,42.805,6.029,4330,1995,192.705,58.934,13.289
2019-07-25T11:47:37,42.805,6.029,4330,1995,192.686,58.927,13.289
2019-07-25T11:50:37,42.805,6.029,4330,1995,192.660,58.920,13.290
2019-07-25T11:56:37,42.805,6.029,4330,1995,192.724,58.937,13.287
2019-07-25T11:59:37,42.805,6.029,4330,1995,192.706,58.935,13.290
2019-07-25T12:02:37,42.805,6.029,4330,1995,192.641,58.916,13.290
2019-07-25T12:05:37,42.805,6.029,4330,1995,192.710,58.937,13.291
2019-07-25T12:08:37,42.805,6.029,4330,1995,192.667,58.925,13.292
2019-07-25T12:11:37,42.805,6.029,4330,1995,192.631,58.914,13.292
2019-07-25T12:14:37,42.805,6.029,4330,1995,192.654,58.919,13.290
2019-07-25T12:17:37,42.805,6.029,4330,1995,192.660,58.920,13.289
2019-07-25T12:20:37,42.805,6.029,4330,1995,192.694,58.932,13.290
2019-07-25T12:23:37,42.805,6.029,4330,1995,192.687,58.930,13.291
2019-07-25T12:26:37,42.805,6.029,4330,1995,192.716,58.937,13.289
2019-07-25T12:29:37,42.805,6.029,4330,1995,192.701,58.932,13.289
2019-07-25T12:32:37,42.805,6.029,4330,1995,192.779,58.957,13.290
2019-07-25T12:35:37,42.805,6.029,4330,1995,192.744,58.945,13.289
2019-07-25T12:38:37,42.805,6.029,4330,1995,192.737,58.943,13.289
2019-07-25T12:41:37,42.805,6.029,4330,1995,192.734,58.942,13.289
2019-07-25T12:44:37,42.805,6.029,4330,1995,192.802,58.963,13.289
2019-07-25T12:47:37,42.805,6.029,4330,1995,192.770,58.953,13.289
2019-07-25T12:50:37,42.805,6.029,4330,1995,192.785,58.957,13.289
2019-07-25T12:53:37,42.805,6.029,4330,1995,192.824,58.969,13.289
2019-07-25T12:56:37,42.805,6.029,4330,1995,192.780,58.956,13.289
2019-07-25T12:59:37,42.805,6.029,4330,1995,192.698,58.932,13.290
2019-07-25T13:02:37,42.805,6.029,4330,1995,192.783,58.957,13.289
2019-07-25T13:05:37,42.805,6.029,4330,1995,192.779,58.956,13.289
2019-07-25T13:08:37,42.805,6.029,4330,1995,192.790,58.959,13.289
2019-07-25T13:11:37,42.805,6.029,4330,1995,192.743,58.946,13.290
2019-07-25T13:14:37,42.805,6.029,4330,1995,192.713,58.937,13.290
2019-07-25T13:17:37,42.805,6.029,4330,1995,192.698,58.931,13.289
2019-07-25T13:20:37,42.805,6.029,4330,1995,192.806,58.965,13.289
2019-07-25T13:23:37,42.805,6.029,4330,1995,192.756,58.949,13.289
2019-07-25T13:26:37,42.805,6.029,4330,1995,192.625,58.909,13.289
2019-07-25T13:29:37,42.805,6.029,4330,1995,192.647,58.917,13.290
2019-07-25T13:32:37,42.805,6.029,4330,1995,192.694,58.930,13.289
2019-07-25T13:35:37,42.805,6.029,4330,1995,192.722,58.939,13.289
2019-07-25T13:38:37,42.805,6.029,4330,1995,192.711,58.936,13.290
2019-07-25T13:41:37,42.805,6.029,4330,1995,192.723,58.941,13.291
2019-07-25T13:44:37,42.805,6.029,4330,1995,192.713,58.936,13.290
2019-07-25T13:47:37,42.805,6.029,4330,1995,192.744,58.946,13.290
2019-07-25T13:50:37,42.805,6.029,4330,1995,192.765,58.953,13.290
2019-07-25T13:53:37,42.805,6.029,4330,1995,192.765,58.952,13.289
2019-07-25T13:56:37,42.805,6.029,4330,1995,192.719,58.938,13.290
2019-07-25T13:59:37,42.805,6.029,4330,1995,192.699,58.933,13.290
2019-07-25T14:02:37,42.805,6.029,4330,1995,192.681,58.927,13.290
2019-07-25T14:05:37,42.805,6.029,4330,1995,192.671,58.923,13.289
2019-07-25T14:08:37,42.805,6.029,4330,1995,192.701,58.935,13.291
2019-07-25T14:11:37,42.805,6.029,4330,1995,192.730,58.943,13.291
2019-07-25T14:14:37,42.805,6.029,4330,1995,192.680,58.928,13.291
2019-07-25T14:17:37,42.805,6.029,4330,1995,192.676,58.926,13.290
2019-07-25T14:20:37,42.805,6.029,4330,1995,192.622,58.909,13.290
2019-07-25T14:23:37,42.805,6.029,4330,1995,192.689,58.929,13.290
2019-07-25T14:32:37,42.805,6.029,4330,1995,192.668,58.920,13.288
2019-07-25T14:35:37,42.805,6.029,4330,1995,192.645,58.915,13.289
2019-07-25T14:38:37,42.805,6.029,4330,1995,192.693,58.931,13.290
2019-07-25T14:41:37,42.805,6.029,4330,1995,192.626,58.910,13.290
2019-07-25T14:44:37,42.805,6.029,4330,1995,192.695,58.930,13.289
2019-07-25T14:47:37,42.805,6.029,4330,1995,192.663,58.921,13.289
2019-07-25T14:50:37,42.805,6.029,4330,1995,192.711,58.936,13.290
2019-07-25T14:53:37,42.805,6.029,4330,1995,192.718,58.939,13.290
2019-07-25T14:56:37,42.805,6.029,4330,1995,192.631,58.913,13.291
2019-07-25T14:59:37,42.805,6.029,4330,1995,192.620,58.909,13.290
2019-07-25T15:02:37,42.805,6.029,4330,1995,192.605,58.905,13.291
2019-07-25T15:05:37,42.805,6.029,4330,1995,192.670,58.923,13.290
2019-07-25T15:08:37,42.805,6.029,4330,1995,192.567,58.894,13.291
2019-07-25T15:11:37,42.805,6.029,4330,1995,192.630,58.913,13.291
2019-07-25T15:14:37,42.805,6.029,4330,1995,192.615,58.907,13.290
2019-07-25T15:17:37,42.805,6.029,4330,1995,192.595,58.902,13.291
2019-07-25T15:20:37,42.805,6.029,4330,1995,192.549,58.887,13.290
2019-07-25T15:23:37,42.805,6.029,4330,1995,192.571,58.893,13.290
2019-07-25T15:26:37,42.805,6.029,4330,1995,192.491,58.871,13.291
2019-07-25T15:29:37,42.805,6.029,4330,1995,192.553,58.889,13.291
2019-07-25T15:32:37,42.805,6.029,4330,1995,192.553,58.888,13.290
2019-07-25T15:35:37,42.805,6.029,4330,1995,192.522,58.879,13.290
2019-07-25T15:38:37,42.805,6.029,4330,1995,192.570,58.895,13.291
2019-07-25T15:41:37,42.805,6.029,4330,1995,192.576,58.896,13.291
2019-07-25T15:44:37,42.805,6.029,4330,1995,192.487,58.868,13.290
2019-07-25T15:47:37,42.805,6.029,4330,1995,192.522,58.879,13.290
2019-07-25T15:50:37,42.805,6.029,4330,1995,192.637,58.912,13.289
2019-07-25T15:53:37,42.805,6.029,4330,1995,192.539,58.883,13.289
2019-07-25T15:56:37,42.805,6.029,4330,1995,192.641,58.914,13.289
2019-07-25T15:59:37,42.805,6.029,4330,1995,192.590,58.899,13.290
2019-07-25T16:02:37,42.805,6.029,4330,1995,192.625,58.908,13.289
2019-07-25T16:05:37,42.805,6.029,4330,1995,192.596,58.901,13.290
2019-07-25T16:08:37,42.805,6.029,4330,1995,192.593,58.899,13.289
2019-07-25T16:11:37,42.805,6.029,4330,1995,192.601,58.901,13.289
2019-07-25T16:14:37,42.805,6.029,4330,1995,192.530,58.880,13.289
2019-07-25T16:17:37,42.805,6.029,4330,1995,192.541,58.883,13.289
2019-07-25T16:20:37,42.805,6.029,4330,1995,192.565,58.890,13.289
2019-07-25T16:23:37,42.805,6.029,4330,1995,192.572,58.892,13.289
2019-07-25T16:26:37,42.805,6.029,4330,1995,192.522,58.878,13.289
2019-07-25T16:29:37,42.805,6.029,4330,1995,192.572,58.893,13.289
2019-07-25T16:32:37,42.805,6.029,4330,1995,192.575,58.894,13.289
2019-07-25T16:35:37,42.805,6.029,4330,1995,192.560,58.888,13.288
2019-07-25T16:38:37,42.805,6.029,4330,1995,192.573,58.893,13.289
2019-07-25T16:41:37,42.805,6.029,4330,1995,192.585,58.898,13.290
2019-07-25T16:44:37,42.805,6.029,4330,1995,192.614,58.905,13.289
2019-07-25T16:47:37,42.805,6.029,4330,1995,192.632,58.912,13.290
2019-07-25T16:50:37,42.805,6.029,4330,1995,192.585,58.897,13.289
2019-07-25T16:53:37,42.805,6.029,4330,1995,192.608,58.904,13.289
2019-07-25T16:56:37,42.805,6.029,4330,1995,192.580,58.895,13.289
2019-07-25T16:59:37,42.805,6.029,4330,1995,192.611,58.906,13.290
2019-07-25T17:05:37,42.805,6.029,4330,1995,192.545,58.883,13.288
2019-07-25T17:08:37,42.805,6.029,4330,1995,192.597,58.899,13.288
2019-07-25T17:11:37,42.805,6.029,4330,1995,192.573,58.893,13.289
2019-07-25T17:14:37,42.805,6.029,4330,1995,192.704,58.932,13.288
2019-07-25T17:17:37,42.805,6.029,4330,1995,192.668,58.922,13.289
2019-07-25T17:20:37,42.805,6.029,4330,1995,192.722,58.937,13.288
2019-07-25T17:23:37,42.805,6.029,4330,1995,192.643,58.914,13.289
2019-07-25T17:26:37,42.805,6.029,4330,1995,192.683,58.928,13.290
2019-07-25T17:29:37,42.805,6.029,4330,1995,192.626,58.911,13.291
2019-07-25T17:32:37,42.805,6.029,4330,1995,192.618,58.906,13.288
2019-07-25T17:35:37,42.805,6.029,4330,1995,192.686,58.928,13.289
2019-07-25T17:38:37,42.805,6.029,4330,1995,192.675,58.924,13.289
2019-07-25T17:41:37,42.805,6.029,4330,1995,192.621,58.907,13.289
2019-07-25T17:44:37,42.805,6.029,4330,1995,192.711,58.935,13.289
2019-07-25T17:47:37,42.805,6.029,4330,1995,192.574,58.893,13.289
2019-07-25T17:50:37,42.805,6.029,4330,1995,192.810,58.965,13.289
2019-07-25T17:53:37,42.805,6.029,4330,1995,192.816,58.967,13.289
2019-07-25T17:56:37,42.805,6.029,4330,1995,192.823,58.970,13.289
2019-07-25T17:59:37,42.805,6.029,4330,1995,192.879,58.987,13.289
2019-07-25T18:02:37,42.805,6.029,4330,1995,192.877,58.986,13.289
2019-07-25T18:05:37,42.805,6.029,4330,1995,192.984,59.020,13.290
2019-07-25T18:08:37,42.805,6.029,4330,1995,192.907,58.996,13.290
2019-07-25T18:11:37,42.805,6.029,4330,1995,192.965,59.014,13.290
2019-07-25T18:14:37,42.805,6.029,4330,1995,192.957,59.012,13.290
2019-07-25T18:17:37,42.805,6.029,4330,1995,192.964,59.014,13.290
2019-07-25T18:20:37,42.805,6.029,4330,1995,192.979,59.019,13.290
2019-07-25T18:23:37,42.805,6.029,4330,1995,193.048,59.040,13.290
2019-07-25T18:26:37,42.805,6.029,4330,1995,193.065,59.044,13.290
2019-07-25T18:29:37,42.805,6.029,4330,1995,193.098,59.055,13.290
2019-07-25T18:32:37,42.805,6.029,4330,1995,193.047,59.040,13.291
2019-07-25T18:35:37,42.805,6.029,4330,1995,193.067,59.047,13.291